Volver al catálogo

OPS 7684 DEB

ActivoPO
NORAD 3617·DEBRIS·🇺🇸 United States

Lanzado Dec 12, 1968 desde Vandenberg Space Force Base

Loading…

Próximos Pases (próximas 24 horas)

TLE

ActualizadoSource: Space-Track

Época: Sep 14, 2026, 05:31 UTC

1 03617U 68112C   26257.23020721  .00000067  00000-0  33486-3 0  9994
2 03617  80.1849 333.9045 0044074 340.0629  47.1805 12.63544816662266

Sigue OPS 7684 DEB en tiempo real con AllMySat

Download on the App Store